Wind_Speed
6 6 6 6 6 6 5 5 5 4 5 5 5 5 4 3 3 4 4 5 5 5 5 5 5 4 4 4 4 5 6 5 4 3 2 2 3 5 4 4 4 4 4 3 4 4 4 4 3 3 3 3 3 2 3 3 3 3 3 3 2 2 2 2 1 1 2 2 2 1 1 1 1 2 3 4 4 5 6 7 7 7 7 7 8
7 6 6 6 6 6 6 5 5 5 5 5 5 4 3 3 3 3 4 5 4 4 4 5 6 6 5 5 5 6 6 7 5 4 3 2 3 5 5 4 4 3 4 3 3 4 4 4 4 4 3 2 2 2 2 2 3 3 2 2 2 1 1 0 0 1 1 1 1 1 1 2 2 3 4 5 5 6 7 7 7 7 7 8 8
7 7 7 6 6 7 6 6 5 5 4 4 5 4 4 4 3 3 3 4 3 3 3 4 5 5 5 6 6 7 7 7 7 4 3 3 3 5 6 5 5 4 4 3 3 3 3 4 4 4 3 3 3 3 3 2 2 2 2 2 2 2 2 1 1 1 1 1 2 2 2 3 4 4 5 5 6 6 7 7 7 8 8 9 9
8 8 8 7 7 7 7 7 6 5 4 4 5 5 5 5 4 3 2 3 3 3 3 3 4 4 4 5 6 7 7 7 7 5 4 3 3 5 6 6 6 5 4 4 3 3 3 3 3 3 3 3 3 3 3 3 3 3 3 3 3 2 2 2 2 2 2 2 3 3 3 4 4 5 5 6 6 7 8 8 8 8 9 9 10
9 9 9 8 7 8 8 8 7 5 5 5 5 5 6 5 3 2 2 2 2 2 3 4 4 4 5 5 6 7 8 8 8 7 5 4 3 4 6 7 6 4 5 5 4 4 4 3 3 3 3 4 4 4 4 4 4 4 4 4 4 4 3 3 3 3 3 3 4 4 4 5 5 6 6 7 7 8 8 8 8 8 9 10 10
10 9 9 9 9 9 9 8 7 6 6 5 5 5 5 4 2 2 2 2 2 2 4 5 5 5 5 5 6 7 8 8 8 8 6 4 4 4 5 7 6 5 5 5 5 4 4 4 4 4 4 5 5 5 5 5 5 5 5 5 5 5 5 4 4 4 4 4 5 5 5 5 6 7 7 7 8 8 8 8 9 9 9 9 9
10 10 10 10 10 10 9 8 7 7 6 6 5 5 5 4 3 3 3 2 2 3 5 6 7 7 6 7 7 8 9 9 8 8 7 5 5 5 5 6 6 6 6 5 5 5 5 5 5 5 5 5 6 6 6 6 6 7 6 6 6 6 6 6 5 5 6 6 6 6 7 7 7 8 8 8 8 8 8 8 9 9 9 9 9
11 10 10 10 11 10 9 8 8 7 6 6 5 4 5 4 2 2 3 3 3 4 6 7 8 8 7 8 8 9 9 9 8 7 7 5 5 6 5 6 6 6 6 6 6 5 5 5 5 6 5 5 6 6 7 7 7 8 7 7 7 7 7 7 7 7 7 7 7 8 8 7 7 8 8 8 8 9 9 8 8 8 8 8 8
11 11 11 11 11 11 10 8 8 7 6 6 5 4 4 4 2 2 3 3 4 5 6 7 8 8 7 8 9 9 10 9 8 7 6 5 5 6 6 6 6 5 5 6 6 5 5 5 5 6 5 6 6 6 6 6 6 8 9 9 9 8 8 9 9 8 9 8 8 8 8 8 8 8 8 8 8 8 8 7 7 7 7 7 6
12 11 11 11 11 11 10 9 8 8 7 6 6 5 5 4 3 4 4 4 5 6 6 6 6 7 7 8 9 10 10 9 8 7 6 5 5 6 6 6 6 5 5 5 5 5 5 5 6 6 6 6 5 5 5 5 5 6 7 8 8 8 9 9 9 9 9 9 9 8 8 8 8 8 8 8 7 7 7 7 8 7 7 6 6
14 12 11 11 11 11 10 9 9 8 8 7 7 6 6 5 4 5 4 4 4 5 5 5 6 7 7 7 8 8 9 8 7 6 6 5 5 6 6 6 6 5 5 4 4 5 5 5 6 6 6 6 6 5 6 6 6 6 6 6 7 7 7 8 9 9 9 9 8 8 7 7 7 7 7 7 7 8 8 8 7 6 5 5 6
15 14 13 12 12 11 10 10 9 9 9 8 7 6 6 5 5 6 5 3 4 4 5 6 7 7 6 5 5 6 7 8 7 6 6 5 5 6 6 6 6 6 6 5 4 5 4 5 5 6 6 6 6 6 6 6 6 6 6 6 6 6 6 7 7 7 7 7 7 7 7 7 7 6 7 7 7 8 8 7 5 4 4 5 4
17 15 14 14 13 12 11 10 10 10 10 9 8 6 6 6 6 6 5 4 4 4 5 7 6 5 3 3 3 4 6 7 7 7 6 6 6 6 7 7 7 6 6 6 6 6 5 5 5 5 5 5 6 6 6 7 7 7 6 6 6 6 6 6 6 6 6 6 6 6 7 7 7 6 7 7 8 7 6 5 4 3 3 3 3
18 17 16 15 15 14 13 12 11 11 10 9 8 7 7 6 6 7 6 4 4 4 6 7 5 4 3 2 0 2 5 7 8 8 7 7 7 7 7 7 7 7 7 7 7 7 6 6 5 5 5 5 5 5 6 7 7 7 7 6 6 5 6 6 6 5 5 5 6 6 7 8 7 6 6 7 7 6 4 3 2 2 2 3 3
20 19 18 17 17 17 15 14 12 11 11 10 9 8 8 7 7 7 6 5 5 6 8 7 5 5 4 2 1 1 3 5 8 9 9 8 9 9 8 8 8 7 8 8 8 8 7 7 6 6 6 6 6 6 6 6 6 7 7 7 6 6 5 5 6 6 6 5 6 7 7 8 8 6 6 7 6 4 2 1 1 1 2 2 3
20 21 20 19 19 18 18 16 14 12 11 11 10 9 9 9 8 8 7 7 7 8 10 6 5 7 4 2 1 1 1 3 5 8 9 9 10 9 9 9 9 8 9 9 8 8 8 8 7 7 7 7 7 6 6 5 5 6 7 7 7 6 6 6 6 6 6 6 7 8 8 8 7 6 5 4 3 2 1 1 1 1 2 2 3
20 21 21 20 20 20 19 18 16 14 12 11 11 10 10 10 9 9 8 9 9 11 12 7 6 9 5 2 1 1 1 1 2 4 8 9 10 9 9 9 9 9 10 10 9 8 8 8 8 8 7 7 7 7 7 6 6 6 6 6 6 6 7 8 7 6 6 6 7 8 8 6 5 4 3 2 2 2 1 0 0 1 2 2 3
21 22 21 20 19 19 20 20 19 17 14 12 12 11 10 10 9 9 9 10 10 12 15 11 8 11 10 5 2 1 1 1 0 1 5 8 9 10 10 10 10 11 11 10 9 9 9 9 9 8 8 8 8 8 7 7 6 6 6 5 6 7 7 8 8 8 8 7 7 7 6 4 4 4 3 2 2 2 2 1 1 1 1 1 2
21 22 21 20 19 18 19 20 20 18 16 14 13 12 11 10 9 9 10 11 11 12 14 13 11 13 14 9 6 5 5 4 3 1 1 4 8 11 12 11 11 12 12 12 11 10 10 10 10 9 8 8 8 8 7 7 7 7 7 6 6 7 7 7 8 8 8 8 7 6 5 4 4 4 4 3 3 3 2 2 1 1 0 0 1
22 23 23 21 19 18 18 19 20 20 18 16 15 13 12 11 10 9 10 12 12 11 12 12 12 14 16 14 10 10 10 9 9 6 2 0 3 7 10 12 13 14 13 13 13 12 12 12 12 11 10 10 9 8 8 7 7 7 8 7 7 7 7 7 7 7 7 7 7 6 5 5 5 4 4 4 4 4 3 3 2 2 1 1 1
23 24 24 23 21 19 18 19 20 21 21 18 16 15 13 12 12 11 11 12 13 13 12 12 13 14 15 16 14 10 9 9 9 8 4 1 1 2 7 10 11 14 15 14 14 13 13 13 13 13 12 12 11 10 9 8 8 8 7 8 7 7 7 7 7 7 7 7 7 6 6 6 5 5 5 5 5 5 4 4 3 3 3 2 2
25 24 25 25 23 22 20 19 20 21 22 21 18 16 15 14 13 12 11 12 13 14 14 12 12 13 13 15 13 9 7 6 8 9 6 3 3 3 7 8 8 11 13 14 14 14 14 14 15 15 14 13 13 12 11 10 10 9 7 7 8 8 8 7 8 7 7 7 7 7 7 7 7 6 7 7 6 6 6 6 5 5 4 4 3
26 25 25 26 25 24 22 20 19 20 22 22 21 18 17 15 14 13 12 12 13 15 15 15 13 13 14 14 14 12 10 9 9 11 9 6 3 4 7 9 10 13 13 13 14 15 15 16 16 16 15 15 14 13 13 12 11 10 9 8 8 9 8 8 8 8 8 8 8 8 8 8 8 8 7 8 8 8 8 7 7 6 6 6 5
27 26 26 26 25 25 24 23 21 20 21 22 22 21 18 16 15 14 13 13 14 15 16 17 16 15 15 16 16 16 15 13 11 10 11 11 8 6 7 7 8 12 14 14 15 15 17 17 17 17 17 16 16 15 14 13 12 11 10 10 10 9 10 10 10 9 9 9 9 9 9 9 9 8 8 8 8 8 9 8 8 8 7 7 7
29 28 27 26 26 25 25 25 23 21 20 21 22 22 20 18 17 16 15 14 15 16 17 18 17 16 15 15 16 17 17 16 14 11 11 12 11 8 8 6 6 9 11 12 14 16 17 18 19 19 19 18 17 17 16 14 13 11 11 12 11 11 11 11 12 11 11 11 11 10 10 10 10 10 10 10 10 10 10 10 10 9 9 9 8
31 30 29 27 26 26 25 25 24 21 20 20 21 22 21 19 17 16 16 15 15 16 17 18 18 17 16 15 16 17 17 16 17 15 13 12 12 10 7 5 6 9 9 9 12 13 15 16 16 17 18 18 18 19 18 17 15 13 13 13 13 13 13 13 13 14 14 13 13 13 12 12 12 12 12 12 12 12 12 12 11 11 11 11 11
32 31 29 28 27 26 25 25 24 22 21 20 20 21 21 20 18 17 16 16 15 16 17 18 19 19 18 17 16 17 17 16 16 17 16 14 13 12 9 4 4 6 6 8 11 14 16 17 16 16 17 18 18 19 19 19 19 17 16 16 16 15 15 15 15 15 16 16 16 15 15 15 15 15 15 15 14 14 14 14 14 14 13 13 13
32 31 30 29 28 27 26 26 25 24 22 21 20 21 21 21 19 18 17 17 16 17 18 18 19 20 19 19 18 18 18 17 17 17 16 15 14 13 11 8 4 2 3 4 6 10 13 14 14 13 14 15 16 17 19 20 20 20 19 19 19 19 18 17 17 17 17 18 18 18 18 18 18 18 18 17 17 17 17 16 16 16 16 16 16
32 32 31 30 29 28 27 27 26 25 23 22 21 21 21 21 20 19 19 18 18 18 18 19 19 19 20 20 20 19 18 17 17 17 17 17 16 15 14 12 8 4 2 2 3 6 9 10 10 10 10 11 12 14 17 19 19 20 22 22 22 22 21 20 20 20 19 20 20 20 20 20 20 20 20 20 20 19 19 19 19 19 19 19 19
32 32 31 31 30 29 28 27 27 26 24 23 23 22 21 22 22 21 20 19 19 19 19 20 20 20 20 20 21 21 19 18 18 17 18 18 17 17 16 15 13 9 5 4 5 8 9 9 9 9 9 11 11 12 15 17 18 20 22 24 24 24 24 24 24 23 23 22 22 22 22 22 22 22 22 22 22 22 21 21 20 20 20 20 21
32 32 32 31 30 30 29 28 28 27 26 25 24 23 23 23 23 22 21 20 21 21 21 21 21 21 21 21 22 22 21 19 19 18 18 19 18 18 17 17 16 14 12 8 5 9 11 10 12 14 14 15 15 15 16 16 17 20 22 24 25 25 26 27 27 27 26 26 25 25 25 24 24 24 24 24 24 24 24 23 23 22 22 22 22
32 31 32 31 31 30 30 30 29 29 28 27 26 25 24 24 24 24 23 22 22 23 23 22 22 22 23 23 23 23 22 21 20 19 19 19 19 19 19 19 18 16 16 12 9 15 21 20 21 22 21 20 20 19 19 19 18 19 22 24 25 26 28 29 29 29 29 29 29 29 28 28 27 27 27 26 26 26 26 25 25 24 24 23 23
31 31 32 32 31 30 30 30 30 30 30 29 28 27 26 26 25 25 25 24 24 24 24 24 24 24 25 25 25 25 24 23 22 21 21 20 19 20 20 21 21 20 18 16 14 18 25 25 24 25 24 22 23 23 22 22 21 21 22 23 24 26 28 29 30 30 31 31 31 31 31 31 30 30 29 29 28 28 28 27 27 26 26 25 25
32 32 32 32 32 31 30 30 30 30 31 30 30 28 28 28 27 26 26 26 26 26 25 26 27 26 27 28 28 27 26 25 25 24 24 23 21 21 22 22 23 23 22 21 19 18 23 26 24 25 26 24 24 25 25 24 24 24 24 25 25 27 28 29 30 30 30 31 32 33 34 34 33 32 31 30 30 29 29 29 28 28 27 27 27
32 33 33 33 32 32 31 31 31 31 31 31 31 30 30 29 28 28 28 27 27 27 27 28 28 28 28 29 29 29 27 26 26 26 25 25 24 23 24 24 24 25 24 24 22 21 23 27 26 26 26 25 26 27 26 25 26 26 27 28 28 28 29 30 31 32 31 31 32 32 34 35 35 34 33 32 31 31 30 30 29 29 29 28 28
32 33 33 33 33 32 32 32 32 32 32 31 31 31 31 30 30 29 29 28 29 29 29 29 29 28 29 30 31 29 27 26 27 27 27 27 26 25 25 25 26 26 26 24 25 25 24 26 28 29 28 27 29 30 29 27 28 28 29 30 30 30 31 32 33 34 34 33 33 32 33 34 35 36 35 33 32 32 31 31 31 30 30 29 29
32 32 32 33 33 33 34 34 33 33 33 32 32 32 32 31 31 31 30 30 30 30 30 30 30 29 29 31 32 29 26 26 27 28 28 28 27 26 26 27 27 27 26 25 26 26 26 27 30 32 31 31 31 32 31 29 29 29 30 32 32 31 32 33 34 35 35 35 35 35 35 35 35 36 37 37 35 33 32 32 32 32 31 31 30
32 32 32 33 33 34 35 35 34 34 33 33 33 33 32 32 32 32 32 31 31 31 31 31 31 30 30 32 31 29 27 28 29 29 28 27 27 27 27 28 28 27 26 26 25 25 26 28 30 31 32 32 32 33 34 31 29 29 31 33 33 31 32 34 35 35 35 36 37 37 38 39 38 38 38 39 38 36 35 34 34 34 33 32 31
33 33 33 33 33 35 36 35 35 34 34 33 34 34 33 33 33 33 33 32 32 32 32 32 31 31 31 32 31 30 29 29 30 29 28 28 28 29 29 29 28 27 26 26 26 24 25 27 29 30 31 30 30 32 34 31 28 29 30 31 33 32 32 34 35 35 35 35 36 38 39 40 41 40 40 39 40 39 37 36 36 36 35 34 33
35 35 34 34 34 35 35 36 35 34 33 34 34 34 34 34 34 34 33 33 32 32 32 32 32 31 32 32 32 32 31 30 30 29 29 29 30 31 32 30 28 27 26 26 25 24 25 26 27 30 30 28 28 31 32 28 26 29 29 28 30 32 33 34 35 36 35 36 37 38 40 41 41 42 42 41 42 41 40 39 39 39 37 36 35
35 35 34 34 34 34 35 35 34 34 34 35 36 36 36 35 35 35 34 33 32 32 31 31 31 32 32 33 33 32 32 31 31 31 31 31 31 32 33 31 28 27 26 26 25 25 25 25 27 29 27 26 28 29 29 28 27 30 29 25 28 32 33 34 37 38 36 36 37 39 41 41 41 42 42 44 44 43 43 42 41 41 40 39 38
35 34 33 33 33 34 34 34 34 33 34 36 37 37 37 36 35 35 34 34 33 32 31 31 31 31 31 32 33 32 32 32 32 33 33 32 32 34 34 33 29 26 24 24 24 25 25 24 27 27 24 26 30 29 29 30 30 30 29 27 29 32 30 29 34 38 37 35 35 38 41 40 39 40 42 44 45 44 44 44 43 43 42 41 40
34 33 33 33 34 34 34 34 34 34 35 37 37 37 37 36 36 35 34 33 32 32 32 32 32 32 31 31 32 32 32 32 33 34 33 33 33 34 35 34 32 29 27 26 25 25 23 24 26 26 23 27 32 31 29 30 30 30 30 28 28 28 25 22 25 31 34 32 30 34 39 38 36 38 41 43 44 43 44 44 44 43 42 42 42
34 34 34 34 34 34 34 34 34 35 37 38 37 37 37 37 36 35 34 33 32 32 32 32 32 32 32 32 33 32 33 33 33 33 33 33 33 33 34 35 34 33 32 32 32 30 27 26 28 29 27 29 33 32 30 31 32 30 29 28 27 27 27 25 25 30 35 34 29 31 37 37 33 34 40 44 42 39 38 41 43 43 43 43 43
35 35 35 35 35 35 35 35 35 36 37 37 37 37 37 37 37 36 35 34 32 32 32 32 32 32 32 33 33 33 34 33 33 33 33 33 33 33 34 34 34 34 34 34 35 35 35 33 32 34 34 33 35 35 33 34 33 29 28 27 27 28 28 27 30 36 40 37 30 29 35 38 32 32 40 43 38 33 33 39 44 45 45 44 44
35 35 36 36 36 37 37 37 37 36 37 37 37 37 37 37 36 35 35 35 34 33 32 32 32 33 33 33 33 34 34 33 32 33 33 33 33 33 33 34 35 35 34 34 35 35 37 38 39 41 41 39 39 40 39 36 34 34 32 31 32 31 26 26 35 42 42 38 33 27 31 37 32 29 38 40 35 34 37 41 45 46 45 45 45
36 37 37 37 37 38 38 37 37 37 39 38 37 37 37 37 35 34 35 35 35 34 33 33 34 34 34 33 33 34 34 33 33 33 33 33 32 32 32 33 35 35 34 34 34 35 36 37 39 43 44 43 42 43 42 39 38 39 37 36 36 30 22 28 40 44 40 38 35 28 28 36 34 29 36 38 33 35 40 41 44 45 44 45 44
35 36 36 36 37 37 37 37 36 38 40 39 38 38 38 36 34 33 34 35 35 34 34 34 35 36 35 34 33 35 35 34 34 34 34 34 32 30 30 32 33 34 33 33 33 35 36 36 39 41 42 44 43 44 44 41 41 42 38 37 36 24 19 30 38 39 38 37 36 32 30 36 36 32 35 37 32 35 40 41 43 44 44 44 42
35 35 36 36 36 37 37 36 37 39 39 38 38 39 38 36 34 34 34 35 35 35 35 35 36 36 36 35 34 35 35 35 36 35 35 34 32 31 31 32 33 33 33 33 33 36 37 37 39 39 40 42 42 43 43 41 43 44 38 36 35 24 20 25 28 32 38 38 37 34 30 34 38 34 34 36 34 36 39 41 43 45 43 40 38
36 37 36 35 36 36 37 37 38 38 38 38 38 39 38 36 35 34 35 35 35 34 35 35 36 35 36 36 35 35 35 37 37 37 35 34 33 32 33 33 32 31 32 33 33 34 34 34 35 37 38 40 40 41 42 40 42 43 38 39 40 31 23 23 25 30 35 37 40 35 29 33 37 34 32 31 30 36 41 41 43 42 38 36 36
36 36 35 34 34 34 36 37 37 38 38 38 38 38 37 35 35 35 35 34 33 33 34 34 34 34 35 35 35 35 37 38 38 37 36 35 34 33 32 31 29 30 32 33 32 31 32 31 33 34 34 34 35 37 39 39 38 38 37 39 41 36 29 28 29 27 21 26 37 33 27 32 34 32 31 23 17 26 36 39 40 39 37 37 38
Wind_Direction
184 177 176 176 180 187 187 188 191 198 211 217 221 222 227 237 232 226 220 224 233 238 250 259 257 256 261 257 255 262 260 260 277 288 294 286 233 220 211 201 195 184 184 193 195 194 184 185 184 166 156 148 146 144 141 141 141 139 133 130 125 118 105 87 67 38 24 29 52 53 29 26 346 331 338 338 337 338 336 335 338 344 347 346 348
192 192 191 187 189 197 198 197 200 207 216 220 222 225 243 254 246 246 235 226 230 238 251 260 258 260 260 250 248 260 262 257 264 279 291 288 240 225 217 212 214 202 198 203 205 203 194 202 200 174 173 176 176 182 176 174 173 171 165 165 170 165 173 149 68 348 353 359 14 359 320 323 320 318 323 324 324 327 330 333 336 337 338 339 341
202 205 204 201 202 204 202 201 201 204 213 220 224 231 250 258 261 262 238 221 227 240 255 265 266 266 263 257 252 256 260 257 257 266 282 286 250 227 226 219 218 213 206 216 220 215 212 222 218 186 180 191 201 210 208 209 206 204 204 200 208 207 217 235 238 272 303 314 315 315 311 308 312 315 317 318 318 322 325 327 330 331 333 335 336
210 212 214 213 214 213 212 211 204 201 212 226 235 242 249 254 265 267 227 210 227 243 261 273 273 274 270 265 264 259 258 256 256 262 273 278 255 228 231 230 225 216 207 219 231 234 237 235 227 205 193 201 215 225 225 231 232 231 235 234 239 237 241 252 254 259 269 280 293 300 303 304 309 312 312 315 317 320 321 324 327 330 332 333 333
215 217 219 221 224 223 223 221 211 209 220 236 245 250 255 254 264 277 241 234 247 261 275 274 272 278 273 267 270 267 260 257 258 262 270 272 263 239 232 232 233 234 224 223 226 233 249 251 246 236 219 219 229 235 235 239 246 249 247 248 251 252 255 261 261 264 266 272 282 291 295 300 301 301 305 310 314 316 318 320 323 326 329 331 331
219 221 224 227 231 232 232 228 220 222 230 240 247 251 257 261 278 308 301 281 271 269 270 266 266 271 269 262 262 266 265 261 260 262 267 269 262 252 237 230 231 241 243 243 238 231 244 249 247 247 239 239 242 242 244 243 247 254 256 257 257 257 259 263 264 267 270 274 279 285 288 292 294 298 303 306 310 314 315 317 319 324 328 331 332
223 227 232 235 238 239 236 232 226 229 231 235 244 251 258 265 274 291 298 288 264 260 262 262 265 265 266 262 254 257 263 264 262 260 263 264 257 252 243 236 232 236 241 247 251 246 249 252 252 252 249 252 253 252 256 253 248 251 255 260 262 261 265 267 268 270 272 274 276 280 282 286 292 298 302 305 311 314 314 317 319 323 327 330 331
228 232 237 239 239 239 237 234 231 232 231 231 244 261 267 268 267 262 264 265 260 261 266 271 273 270 264 257 247 247 256 263 267 263 262 260 253 251 249 246 242 240 241 244 251 254 258 261 262 264 261 261 265 264 266 265 261 262 262 262 262 262 266 269 271 275 277 278 279 283 287 291 294 298 301 307 312 313 314 319 322 324 326 328 331
230 235 239 239 238 239 238 236 234 235 237 239 248 266 272 268 260 234 230 253 259 253 259 266 268 265 255 244 238 240 248 260 269 270 267 260 253 251 253 253 247 242 245 250 255 259 263 265 265 272 274 268 270 272 275 277 277 273 269 266 266 264 266 269 272 276 280 282 286 290 295 299 301 302 304 308 312 314 315 318 321 321 320 325 333
228 233 239 239 238 239 240 238 236 238 243 248 253 261 266 261 250 236 234 254 253 240 239 244 247 250 241 232 232 235 243 255 267 272 273 268 258 255 256 255 249 244 248 256 265 269 269 269 267 270 275 274 274 276 280 286 288 284 277 274 274 267 265 269 272 276 281 284 287 292 297 300 302 302 305 309 310 311 311 311 316 317 320 329 335
226 231 237 240 238 238 241 240 239 241 242 248 251 256 263 255 241 240 247 256 244 225 219 220 225 234 235 232 232 235 242 250 262 274 280 281 268 258 257 254 252 250 250 256 264 267 266 268 273 272 274 278 279 280 281 284 289 291 289 285 282 274 269 272 273 274 278 282 284 288 294 298 300 301 304 307 304 303 306 309 314 320 327 333 335
225 231 237 241 240 237 240 240 242 242 242 245 247 257 264 249 236 240 248 245 217 202 211 220 220 223 231 237 233 233 241 249 259 272 283 288 280 264 258 255 256 256 254 255 258 260 263 267 270 270 273 278 278 277 276 277 281 286 289 288 288 285 280 279 278 275 273 276 282 287 292 295 295 294 293 293 294 299 305 310 317 325 333 339 350
228 232 236 241 242 238 238 239 241 242 243 248 249 258 260 239 231 232 236 229 202 196 212 216 209 199 204 221 230 234 242 250 258 268 276 282 281 270 262 260 260 261 259 258 259 260 265 270 270 267 267 274 277 275 274 273 276 281 285 282 283 288 286 282 280 278 274 273 278 284 287 286 283 280 280 284 289 296 303 311 325 337 346 15 47
232 235 237 240 241 239 238 237 240 242 245 248 246 254 252 234 230 229 227 217 204 212 209 202 190 166 143 133 220 274 260 260 262 267 272 272 275 270 264 263 262 265 264 263 265 262 264 270 269 266 265 270 281 284 280 277 278 283 285 279 273 274 279 281 279 278 277 273 272 274 277 280 281 279 279 286 292 298 306 319 344 9 32 56 57
236 239 239 240 242 240 239 239 240 241 244 244 240 247 244 233 233 232 225 209 208 216 201 192 182 151 111 72 28 339 282 271 264 264 269 267 268 267 264 263 261 263 262 262 265 263 264 269 267 268 268 268 275 281 283 281 281 283 282 278 271 267 268 271 272 274 275 272 269 268 271 280 287 287 286 292 295 302 323 5 48 67 61 50 40
239 239 239 241 243 241 240 241 240 239 241 242 239 242 237 231 231 231 226 209 205 205 193 192 202 173 121 59 52 29 292 288 276 260 263 266 266 264 263 266 265 265 264 264 266 265 265 267 269 273 274 273 272 272 274 275 274 273 273 276 272 267 262 258 260 265 266 266 269 268 271 284 294 294 292 295 299 305 335 30 66 64 51 39 35
237 237 238 241 244 242 240 241 241 238 238 239 240 242 239 235 232 229 227 215 209 202 193 198 216 201 184 142 114 4 241 281 312 263 255 262 267 266 263 266 269 269 270 271 270 265 262 261 265 273 279 281 277 274 274 270 264 264 270 274 272 270 263 258 258 258 257 258 266 268 272 287 298 296 294 286 283 288 295 333 36 43 42 35 38
234 234 236 240 244 244 242 241 241 238 237 238 240 244 244 243 239 232 227 221 215 205 202 212 222 216 219 214 203 250 223 183 79 306 269 261 263 265 263 262 266 269 269 269 267 261 257 257 259 266 277 284 281 277 280 275 264 261 267 266 268 275 269 261 257 255 257 258 258 262 270 282 284 283 278 261 264 272 276 293 321 18 46 39 41
234 234 234 238 243 244 243 242 241 238 236 237 238 242 248 250 247 239 230 224 221 215 213 222 228 224 224 220 227 262 270 240 207 199 313 264 257 259 262 263 265 266 265 263 261 256 254 255 258 262 268 276 276 272 274 274 266 262 263 258 264 274 269 258 251 249 257 258 254 256 263 265 265 269 266 260 263 263 268 269 251 241 207 40 33
235 236 235 237 242 243 243 242 240 236 235 236 238 241 247 250 248 243 234 226 227 229 226 227 231 228 223 223 241 271 275 253 233 219 159 332 268 260 260 262 263 264 263 262 258 254 255 256 260 263 266 269 269 266 267 268 269 268 263 257 260 267 261 252 247 244 250 253 254 253 250 253 256 258 257 258 259 257 256 248 234 234 242 267 325
235 237 236 238 240 241 242 242 240 237 235 237 240 241 244 248 249 244 238 232 229 233 236 236 239 236 229 230 242 265 269 251 235 223 199 227 269 262 257 258 262 261 257 257 257 255 256 258 262 265 266 268 267 265 265 266 270 271 264 255 253 259 257 249 245 245 247 250 253 251 247 248 249 251 252 251 252 252 248 241 239 246 255 271 292
234 236 237 238 240 241 242 242 241 240 238 239 241 241 243 247 251 251 246 240 234 233 236 239 244 244 239 236 238 243 243 232 224 218 213 232 249 268 259 249 256 261 257 256 255 256 258 259 262 265 265 266 266 266 268 269 269 269 265 258 254 256 257 251 245 247 250 250 251 250 248 248 247 248 249 247 245 245 242 240 241 244 251 263 277
234 236 237 237 239 240 241 242 243 242 241 240 241 243 244 247 253 254 250 247 241 237 237 238 244 248 247 245 243 241 235 229 227 222 217 221 231 259 258 247 247 256 260 260 258 259 260 260 262 263 264 264 265 266 269 272 271 266 264 261 258 257 256 251 246 247 252 252 249 248 247 246 246 246 245 244 241 239 238 238 241 242 248 257 268
232 235 235 234 236 238 239 240 242 243 242 242 242 243 246 250 252 253 252 251 246 244 241 239 243 249 250 250 250 253 250 244 245 243 236 235 236 245 254 252 250 257 263 266 265 263 261 261 262 262 263 262 261 262 265 269 270 265 261 259 259 259 255 251 248 248 251 252 249 246 246 245 245 244 244 245 243 242 242 242 243 245 249 256 266
228 231 232 231 234 236 238 239 241 244 245 244 244 244 247 249 250 251 252 251 248 248 246 242 245 251 254 256 256 258 258 252 253 261 257 247 243 247 255 256 256 268 275 275 273 272 267 263 261 260 261 259 258 259 259 263 266 264 260 258 257 258 257 253 250 250 250 251 250 248 247 246 245 244 243 244 245 245 245 246 247 248 251 257 265
227 229 230 230 234 237 238 240 242 246 247 247 246 245 246 247 247 249 250 250 250 251 250 247 247 250 255 260 261 261 262 258 254 259 264 257 246 245 252 257 262 270 279 280 276 274 271 270 266 260 259 258 257 257 257 258 260 261 259 258 257 256 256 255 253 253 251 249 249 249 249 248 246 246 245 245 247 248 249 250 251 253 256 260 266
229 231 232 232 234 238 239 241 242 245 248 248 247 246 245 244 244 248 249 250 250 250 251 249 248 249 252 257 261 262 263 261 257 257 262 263 258 254 249 246 267 274 272 272 270 269 272 278 278 269 261 259 259 258 258 258 259 260 259 258 259 257 256 256 255 255 253 251 250 250 250 250 249 249 249 249 250 252 254 255 257 260 262 265 269
232 233 234 234 235 238 241 242 242 245 247 249 249 248 245 243 243 245 246 247 248 250 251 250 250 250 252 255 259 261 263 264 262 260 260 263 265 262 251 240 245 279 289 274 266 272 279 280 281 280 273 265 264 262 260 259 259 259 259 259 260 260 259 259 258 257 255 254 252 251 251 251 252 252 253 254 255 256 258 259 261 263 265 267 269
232 234 235 236 237 239 241 242 242 245 247 249 251 250 248 245 244 244 244 245 247 249 250 252 253 254 255 257 259 262 264 264 263 262 262 266 267 263 258 255 252 246 280 298 269 270 285 286 281 288 291 281 274 269 263 261 262 261 260 261 262 263 262 261 261 260 258 256 255 253 252 252 254 255 256 257 258 259 260 261 262 264 265 267 269
233 235 236 237 238 239 241 241 241 244 248 250 251 251 250 247 246 246 246 246 248 249 250 252 254 256 258 260 261 263 265 265 264 262 261 264 267 265 262 263 263 253 247 274 287 274 279 289 287 295 309 306 295 282 271 266 265 263 263 264 264 265 266 265 264 262 260 259 257 255 254 253 253 255 256 258 259 259 259 259 260 262 264 266 268
234 235 236 237 238 238 239 240 241 243 248 250 251 252 250 248 247 248 247 248 250 250 250 252 254 256 259 261 263 264 266 267 266 265 263 262 265 267 264 263 266 266 260 256 275 277 274 286 294 297 305 307 303 297 287 279 272 266 264 266 267 268 268 267 266 264 262 261 259 258 257 255 255 255 256 257 258 258 258 258 259 261 263 265 267
234 235 236 237 238 238 238 239 240 243 247 250 251 252 251 249 248 248 249 250 251 252 253 254 255 256 259 261 263 265 267 268 267 267 267 265 265 265 265 265 265 267 265 251 248 271 277 283 289 291 294 296 296 294 292 290 284 276 270 269 270 270 269 268 267 266 264 262 261 259 258 257 257 256 256 256 257 258 258 258 259 260 263 265 267
233 234 236 237 238 239 239 240 241 243 246 249 250 251 250 250 250 250 250 251 252 254 255 256 256 256 258 261 263 266 267 268 269 270 269 269 267 265 264 264 263 263 262 252 248 269 280 283 285 287 289 290 289 289 288 288 287 284 281 278 276 273 271 270 270 269 267 265 262 260 258 258 257 257 257 257 257 258 258 259 260 260 262 264 266
233 234 235 237 238 239 240 241 242 244 246 248 249 249 249 250 250 250 250 251 252 254 255 257 258 258 259 261 264 266 267 267 269 270 271 270 269 267 265 264 263 263 261 257 253 264 277 280 281 284 287 286 284 286 286 286 287 286 283 281 280 278 277 276 274 273 272 269 266 262 259 257 257 257 258 258 258 257 257 258 258 259 260 263 265
232 233 235 236 237 238 240 242 243 244 246 248 249 248 249 249 250 251 251 251 251 253 255 257 259 259 259 261 264 266 266 266 268 269 270 270 268 268 267 266 265 265 264 261 256 258 270 279 282 283 285 285 284 287 288 287 287 285 282 282 281 279 279 278 277 276 275 273 270 267 263 259 257 256 257 258 258 257 255 255 255 256 257 260 262
230 232 234 235 236 237 239 241 243 244 246 247 248 248 249 249 250 251 252 252 252 253 255 257 259 259 259 261 264 265 265 265 268 269 269 270 269 268 268 268 267 267 267 264 261 260 265 274 280 281 283 284 284 286 287 286 285 283 281 282 280 279 279 279 278 277 276 275 274 271 268 263 259 257 256 256 256 256 254 253 253 254 255 256 259
228 230 232 232 233 235 237 240 242 243 245 246 246 247 249 250 251 252 253 253 254 255 256 258 259 258 259 262 264 264 263 264 267 268 268 269 270 270 270 270 269 269 269 266 265 264 263 267 274 279 281 282 283 284 285 284 283 283 282 281 279 277 278 277 276 276 276 275 274 273 271 268 263 258 254 253 254 254 253 252 252 253 253 254 256
226 229 230 231 232 234 237 239 241 243 244 245 245 246 248 249 251 253 253 253 253 255 256 258 259 259 260 262 264 263 263 264 266 268 269 270 271 271 271 272 273 271 270 269 267 266 264 265 270 275 278 280 281 284 285 284 282 282 283 283 281 278 276 276 275 275 275 273 272 272 270 269 267 262 256 253 252 252 252 251 251 251 251 252 253
225 227 228 230 232 234 237 239 240 241 242 244 245 246 247 247 249 251 252 252 253 254 256 258 259 260 261 263 263 263 263 264 266 268 269 271 272 274 274 274 273 272 271 272 270 267 266 267 269 273 276 278 279 282 285 285 282 280 279 279 280 281 280 279 278 278 277 274 272 271 269 266 266 265 262 257 254 252 252 252 252 251 250 249 249
225 227 228 230 232 234 237 238 239 240 240 242 243 244 245 246 247 249 250 250 251 253 255 257 259 260 262 263 263 264 264 265 266 267 269 271 272 274 276 274 272 271 271 271 270 269 268 267 269 273 275 277 277 279 282 281 277 276 276 274 275 279 282 280 280 280 279 276 274 273 270 266 264 264 263 261 258 254 252 251 250 250 249 248 247
226 227 228 230 232 233 236 237 238 238 238 240 241 242 242 243 245 247 248 249 250 252 253 256 258 259 261 263 264 264 265 266 268 269 270 271 271 272 275 274 271 270 270 270 270 270 268 267 268 272 274 275 275 276 277 274 272 276 279 275 272 276 280 280 280 280 278 276 274 273 272 269 264 263 262 260 259 256 253 251 249 248 248 247 245
226 227 228 230 231 233 235 236 236 236 237 239 241 241 242 242 243 244 246 247 249 250 252 254 256 258 260 262 264 265 266 268 270 270 270 271 270 272 274 273 270 267 267 267 267 267 267 267 268 271 271 272 273 273 274 276 278 279 278 274 271 276 279 279 281 283 281 277 271 269 272 272 266 262 261 259 259 258 256 255 252 249 248 247 246
225 226 228 229 230 232 234 235 236 235 237 239 240 241 242 242 242 242 244 246 248 249 251 253 255 258 259 261 263 264 265 267 269 270 270 270 270 272 275 275 271 266 263 263 264 265 266 267 269 271 269 271 274 275 276 279 279 277 275 273 270 272 273 271 277 284 285 282 271 266 271 273 267 262 261 261 260 258 258 260 259 256 251 249 247
224 225 227 229 230 232 233 235 236 236 238 240 241 241 242 243 243 242 242 244 246 248 250 252 254 257 259 261 263 264 265 267 268 270 271 271 272 273 275 276 274 270 267 265 264 264 264 265 268 269 267 270 274 275 275 277 277 276 275 273 269 267 266 265 268 276 282 284 275 267 270 273 268 262 263 264 260 256 260 266 265 261 255 249 246
223 225 227 228 230 232 233 234 235 236 239 241 241 242 243 243 244 243 242 243 244 246 249 250 253 255 257 259 261 262 264 266 267 268 270 271 273 273 274 276 275 274 271 269 267 266 264 263 264 265 267 268 270 273 275 276 277 277 275 274 271 267 264 265 269 275 280 280 273 268 272 274 269 261 263 266 259 251 261 270 266 260 255 249 244
222 224 226 228 229 231 233 234 236 238 239 240 242 243 243 244 244 244 244 243 244 245 247 249 252 254 256 257 258 261 263 264 264 266 268 269 270 271 273 274 275 276 275 273 272 270 266 262 260 263 268 269 268 272 276 276 275 274 273 273 273 270 269 273 275 276 278 277 271 267 270 273 270 262 263 266 256 248 258 266 264 260 257 252 246
222 225 226 227 229 231 233 234 236 239 241 241 242 243 244 245 244 244 245 244 244 245 246 248 250 253 255 255 256 260 262 263 264 265 267 268 269 269 269 271 274 275 274 273 276 276 274 270 266 268 273 275 275 277 279 277 275 274 274 274 275 276 280 279 277 277 277 276 271 262 261 269 270 263 263 266 258 250 254 259 260 259 256 253 250
223 225 227 227 229 231 232 233 235 238 241 242 242 243 244 245 244 244 245 244 244 244 245 247 250 252 254 254 255 258 260 262 264 265 267 268 267 265 265 267 270 272 271 274 279 281 282 281 279 279 282 284 284 285 284 283 280 278 278 277 277 279 279 277 276 277 278 277 271 260 256 265 268 262 263 267 261 254 254 255 256 256 254 252 251
222 224 226 228 229 231 232 232 234 237 240 242 242 243 244 243 242 243 243 243 243 243 245 248 250 251 252 252 254 256 259 262 264 266 268 267 264 261 262 265 268 270 271 275 279 281 281 282 283 284 286 287 288 288 288 287 285 282 277 273 274 269 259 263 270 273 274 274 272 263 254 259 264 262 263 265 260 254 255 255 256 256 254 252 253
222 224 226 228 229 230 231 232 234 237 240 242 242 243 243 242 241 241 242 242 242 242 246 249 249 250 252 253 253 254 257 261 264 266 266 265 262 261 261 264 266 267 271 275 277 278 280 281 281 282 283 285 286 287 288 287 287 283 275 272 276 272 254 249 257 266 270 271 271 265 252 253 261 260 259 263 260 253 252 254 256 254 250 248 250
223 225 226 227 229 230 232 233 235 237 240 242 243 243 243 241 240 240 240 239 239 241 244 247 249 250 251 252 253 254 256 261 265 266 266 264 262 261 262 263 263 265 271 276 276 278 280 280 281 281 282 283 286 288 289 288 287 285 279 276 278 274 262 258 260 263 268 272 273 267 251 252 259 255 250 253 258 257 253 251 250 246 242 245 246
Height
862 863 863 864 864 865 866 866 866 867 867 867 867 867 868 868 868 869 869 869 869 870 870 870 871 871 872 872 872 872 872 873 873 874 874 874 875 875 875 876 876 877 877 877 878 878 878 878 879 879 879 880 880 880 880 881 881 881 881 882 882 882 882 883 883 883 883 883 883 883 883 883 883 882 882 882 881 881 881 880 880 879 879 879 878
862 863 864 864 865 865 866 866 867 867 867 867 868 868 868 868 869 869 869 869 869 870 870 870 871 871 872 872 872 872 873 873 874 874 874 875 875 875 876 876 876 877 878 878 878 878 879 879 879 879 880 880 880 880 881 881 881 881 882 882 882 883 883 883 883 883 883 883 883 883 883 883 883 882 882 882 882 881 881 880 880 880 879 878 878
863 863 864 865 865 866 866 866 867 867 867 867 868 868 869 869 869 869 869 869 870 870 870 870 871 871 872 872 872 872 873 873 874 874 875 875 875 876 876 877 877 877 878 878 878 879 879 879 879 880 880 880 881 881 881 881 881 882 882 882 882 883 883 883 883 883 883 883 883 883 883 883 883 882 882 882 882 881 881 881 880 880 879 878 878
863 863 864 865 865 866 866 867 867 867 868 868 868 869 869 869 869 869 869 869 870 870 870 870 871 871 871 872 872 872 873 873 874 874 875 875 876 876 876 877 877 877 878 878 879 879 879 879 880 880 880 880 881 881 881 881 882 882 882 882 882 883 883 883 883 883 883 883 883 883 883 883 883 882 882 882 882 882 881 881 880 880 879 878 878
862 863 864 865 865 866 867 867 868 868 868 868 868 868 868 869 869 869 869 869 870 870 870 870 871 871 871 872 872 872 872 873 873 874 875 875 876 876 876 877 877 878 878 878 879 879 879 879 880 880 880 880 880 881 881 881 882 882 882 882 882 883 883 883 883 883 883 883 883 883 883 883 883 883 882 882 882 881 881 880 880 879 879 878 878
862 863 864 865 865 866 866 867 868 868 868 868 868 868 868 868 869 869 869 869 870 870 870 871 871 871 871 872 872 872 872 873 873 874 875 875 876 876 877 877 877 878 878 879 879 879 879 879 879 880 880 880 880 881 881 881 881 881 882 882 882 882 882 883 883 883 883 883 883 883 883 883 883 882 882 882 882 881 881 880 880 879 879 878 877
862 862 863 864 865 865 866 867 867 868 868 868 868 868 868 869 869 869 869 869 870 870 870 871 871 871 871 872 872 872 872 873 873 874 875 875 876 876 877 877 877 878 878 878 879 879 879 879 880 880 880 880 880 880 880 881 881 881 882 882 882 882 882 882 882 882 883 882 883 882 882 882 882 882 882 882 881 881 880 880 879 879 878 878 877
861 862 862 863 864 865 866 867 867 868 868 868 868 868 869 869 869 869 869 870 870 870 870 870 871 871 871 871 872 872 872 873 873 874 875 875 876 876 877 877 877 878 878 878 879 879 879 879 879 879 880 880 880 880 880 880 881 881 881 881 881 882 882 882 882 882 882 882 882 882 882 882 882 882 882 881 881 880 880 879 879 878 878 877 876
860 861 862 863 863 864 865 866 867 867 868 868 868 869 869 869 869 869 870 870 870 870 870 870 870 871 871 871 871 872 872 873 874 874 875 875 876 876 876 877 877 878 878 878 878 878 879 879 879 879 879 879 879 880 879 880 880 880 880 881 881 881 881 881 881 882 882 882 882 882 882 882 881 881 881 881 880 880 879 879 878 878 877 877 876
860 860 861 862 863 864 865 866 866 867 867 868 868 869 869 869 869 870 870 870 870 870 870 870 870 870 871 871 871 872 872 873 874 874 875 875 876 876 876 877 877 877 878 878 878 878 878 878 879 879 879 879 879 879 879 879 879 880 880 880 880 880 880 881 881 881 881 881 881 881 881 881 881 881 880 880 880 879 879 878 878 877 877 877 876
859 860 860 861 862 863 864 865 866 867 867 868 868 869 869 869 869 870 870 870 869 870 870 870 870 870 871 871 871 872 873 873 874 874 875 875 876 876 876 877 877 877 878 878 878 878 878 878 878 878 878 878 878 878 879 879 879 879 879 879 879 879 880 880 880 880 880 881 881 881 881 881 880 880 880 880 879 879 879 878 878 878 877 877 877
859 859 860 861 862 862 863 864 866 866 867 867 868 868 869 869 869 870 870 869 869 869 870 870 870 870 871 871 872 872 873 873 874 874 875 875 876 876 876 877 877 877 878 878 878 878 878 878 878 878 878 878 878 878 878 878 879 879 879 879 879 879 879 879 879 879 880 880 880 880 880 880 880 880 879 879 879 879 878 878 878 878 878 877 877
858 859 860 860 861 862 863 864 865 866 867 867 868 868 868 869 869 870 870 869 869 869 870 870 870 871 871 872 872 873 873 874 874 874 875 875 875 876 876 877 877 877 878 878 878 878 878 878 878 878 878 877 878 878 878 878 878 878 878 879 878 879 879 879 879 879 879 879 879 880 879 879 879 879 879 878 878 878 878 878 878 878 878 878 877
857 858 859 860 860 862 862 863 864 865 866 867 868 868 868 869 869 869 870 869 869 869 870 870 870 871 872 873 873 874 874 874 874 874 874 875 875 876 876 876 877 877 877 878 878 878 878 878 878 878 877 877 877 877 878 878 878 878 878 878 878 878 878 878 879 879 879 879 879 879 879 878 878 878 878 878 878 878 878 878 878 878 878 878 878
856 857 858 859 860 861 862 863 864 865 866 867 867 868 868 868 869 869 869 869 869 870 870 871 871 872 873 874 875 876 875 874 874 874 874 875 875 875 876 876 876 877 877 877 878 878 878 878 878 878 877 877 877 877 877 877 878 878 877 878 878 878 878 878 878 878 878 879 879 878 878 878 878 878 878 878 878 878 878 878 878 878 878 878 878
855 856 857 858 859 860 861 862 863 864 865 866 867 867 868 868 869 869 869 869 869 870 871 871 871 872 874 876 877 878 878 875 873 874 874 874 874 875 875 875 875 876 876 877 877 877 877 877 877 877 877 877 877 877 877 877 877 877 877 877 877 877 877 877 878 878 878 878 878 878 878 878 878 878 878 878 878 878 878 878 878 878 878 878 878
853 855 856 857 858 859 860 861 863 864 865 866 866 867 868 868 868 869 869 870 870 870 871 871 872 872 873 875 877 879 879 875 874 874 873 873 874 874 874 875 875 875 875 876 876 876 877 877 877 877 877 877 877 877 877 877 877 877 877 877 877 877 877 877 877 877 878 878 878 878 877 878 878 878 878 878 878 878 878 878 879 879 879 879 878
853 854 855 856 857 858 859 860 861 863 864 865 866 867 867 867 868 869 869 870 870 870 871 871 872 872 872 873 874 876 875 874 876 876 874 873 873 873 874 874 874 874 874 875 875 875 876 876 876 876 876 876 876 876 876 876 876 876 876 876 876 876 876 876 876 877 877 877 877 877 877 877 878 878 878 878 878 878 879 879 879 879 879 879 878
852 853 854 855 856 857 858 859 860 862 863 864 865 866 867 867 868 868 869 869 870 870 871 871 872 872 872 872 872 873 873 873 875 876 876 874 872 873 873 873 874 874 874 874 874 875 875 875 875 876 876 876 876 876 876 876 876 875 875 875 875 875 875 875 875 876 876 876 877 877 877 877 877 877 878 878 878 878 878 879 879 879 879 879 878
851 852 853 854 855 856 857 858 859 860 862 863 864 865 866 866 867 868 868 869 869 870 870 871 871 871 872 872 872 872 873 873 873 874 875 876 874 873 873 873 873 873 873 873 874 874 874 874 875 875 875 875 875 876 875 875 875 875 875 875 875 875 875 875 875 875 875 876 876 876 876 877 877 877 877 878 878 878 878 879 879 879 879 879 879
850 851 852 853 854 855 856 857 858 859 860 862 863 864 865 866 866 867 868 868 869 869 870 870 870 871 871 871 872 872 872 872 873 873 873 875 875 873 872 873 873 872 872 872 873 873 873 874 874 874 874 874 874 875 875 875 874 874 874 874 874 874 874 874 875 875 875 875 876 876 876 876 877 877 877 877 877 878 878 878 879 879 879 879 878
848 849 851 852 853 854 855 856 857 857 859 860 862 863 864 865 865 866 867 867 868 868 869 869 869 870 871 871 871 872 872 872 873 873 873 874 875 873 872 873 872 872 872 872 872 872 873 873 873 873 873 873 873 874 874 874 874 873 873 873 873 873 873 874 874 874 875 875 875 875 876 876 876 876 876 877 877 877 877 878 878 878 878 878 878
846 848 849 850 852 853 853 854 855 856 857 859 860 861 862 864 864 865 866 866 867 867 868 868 869 869 870 870 871 871 872 872 872 872 872 873 873 873 872 872 872 871 871 871 871 871 871 871 871 872 872 872 872 873 873 873 873 873 873 873 872 872 873 873 873 874 874 874 874 874 875 875 875 875 876 876 876 876 876 876 876 876 877 877 877
844 846 847 848 850 851 852 853 854 855 856 857 859 860 861 862 863 864 865 865 865 866 866 867 868 868 869 869 870 871 871 872 872 872 872 872 872 872 871 872 872 870 870 870 870 870 870 870 870 870 870 871 871 871 872 872 872 872 872 872 872 872 872 872 872 872 873 873 873 873 874 874 874 874 874 875 875 875 875 875 875 875 875 876 876
842 843 844 846 848 849 850 851 852 854 855 856 857 859 860 861 862 862 863 864 864 864 865 866 866 867 868 869 869 870 870 871 872 872 872 872 872 872 871 871 871 870 870 870 869 869 868 868 868 868 869 869 870 870 870 870 870 871 871 870 871 871 871 871 871 871 871 872 872 872 872 872 873 873 873 873 874 874 874 874 874 874 874 874 874
839 841 842 845 846 848 849 850 851 853 854 855 856 857 859 860 860 861 862 862 863 863 864 864 865 866 867 867 868 869 869 870 871 871 871 871 871 871 871 871 871 870 870 869 868 867 866 866 866 867 867 867 868 868 868 869 869 869 870 869 869 870 870 870 870 870 870 870 870 871 871 871 871 871 872 872 872 872 872 873 873 873 873 873 873
838 839 841 843 845 846 848 849 850 851 852 854 855 856 857 858 859 860 860 861 862 862 863 863 864 865 865 866 867 867 868 869 870 870 870 870 870 871 871 871 871 870 869 868 867 866 864 864 864 865 865 865 866 866 866 867 867 868 868 868 868 868 868 868 868 868 869 869 869 869 869 869 870 870 870 870 870 870 871 871 871 871 871 871 871
836 838 840 842 843 845 846 847 848 850 851 852 853 854 855 856 857 858 859 860 860 860 861 862 862 863 864 865 865 866 867 868 868 869 869 869 870 870 870 871 872 872 870 868 866 864 863 863 863 862 863 864 864 864 865 865 865 866 866 866 866 866 866 866 866 867 867 867 867 867 867 867 868 868 868 868 868 868 869 869 869 869 869 869 869
834 836 838 840 842 843 844 846 847 848 849 850 851 852 853 854 855 856 857 858 859 859 860 860 861 862 862 863 863 864 865 866 867 867 868 868 868 869 869 869 870 871 871 869 865 862 862 862 862 862 861 862 862 862 863 862 863 863 863 863 863 863 864 864 864 864 865 865 865 865 865 865 865 865 865 865 866 866 866 866 866 866 866 866 866
832 834 836 837 839 841 843 844 845 846 847 848 849 851 852 852 853 854 855 856 857 857 858 859 859 860 860 861 862 862 863 864 865 866 866 867 867 867 868 868 868 869 870 869 865 860 860 861 861 861 861 861 861 861 861 861 861 861 861 861 860 860 861 861 861 862 862 862 862 862 862 862 862 862 862 862 863 863 863 862 862 862 862 863 863
830 832 833 835 837 839 840 842 843 844 845 846 847 849 849 850 851 852 853 854 855 856 856 857 857 858 858 859 859 860 861 863 863 864 864 865 865 866 866 866 867 867 867 868 865 859 858 860 860 860 860 859 859 859 858 858 858 858 858 858 857 857 858 858 858 859 859 859 859 859 859 859 859 859 859 859 859 859 859 859 859 859 860 860 860
828 829 831 832 834 836 838 839 841 842 843 844 845 846 847 848 849 850 851 852 853 853 855 855 856 856 856 857 857 858 860 861 861 862 862 863 864 864 865 864 865 865 865 866 864 858 856 858 858 858 858 857 857 857 856 856 856 856 855 854 854 854 855 854 854 855 855 856 856 856 856 855 855 855 855 855 855 856 856 856 857 857 857 858 858
825 827 828 830 831 833 835 837 838 840 841 842 843 844 845 846 846 848 849 850 851 851 852 853 854 854 854 854 855 856 858 859 859 860 860 861 862 862 863 862 862 863 863 863 862 857 854 855 856 855 855 855 854 854 854 853 853 853 852 851 851 851 851 850 850 851 851 851 851 851 851 851 851 851 851 852 852 853 853 854 854 855 855 855 855
823 824 826 827 829 831 832 834 835 837 838 840 841 842 843 843 844 845 846 847 848 849 850 851 851 852 852 852 852 854 856 857 857 858 858 859 860 860 860 860 860 860 860 860 860 857 852 851 853 853 852 853 852 851 851 850 850 850 849 848 848 847 847 847 846 846 846 846 846 846 846 846 847 847 848 848 849 849 850 850 851 851 852 852 852
820 822 824 825 827 828 829 831 832 834 836 837 838 839 840 841 842 843 844 845 846 847 847 848 848 849 850 850 850 851 853 854 855 856 856 856 857 857 857 857 857 857 857 857 857 856 852 849 850 850 849 849 848 847 848 848 847 847 846 845 845 844 844 843 842 841 841 841 841 841 841 841 842 843 843 844 844 845 845 846 846 846 847 847 848
817 819 821 823 825 826 827 828 829 831 833 834 836 837 837 839 839 840 842 843 844 844 845 845 846 847 848 847 848 849 851 852 852 853 853 853 854 854 854 855 854 854 855 855 854 854 852 848 847 847 847 846 845 845 845 845 844 844 843 842 842 841 841 840 839 837 837 837 836 836 836 836 837 838 838 839 839 839 840 840 841 842 842 843 843
814 816 818 820 822 823 824 825 826 828 829 831 833 834 835 836 837 838 839 840 841 842 843 843 844 845 845 845 845 847 849 850 850 850 850 851 851 851 852 852 851 852 852 852 852 851 850 848 845 845 845 844 842 842 842 842 841 841 840 839 838 838 838 836 835 834 833 833 832 832 831 831 831 832 832 832 832 833 834 835 836 837 837 838 839
811 813 815 817 819 820 821 822 823 824 826 828 829 831 832 834 835 835 836 837 838 839 840 841 841 842 842 843 843 846 847 847 847 847 848 848 848 848 848 848 848 849 849 849 849 849 848 846 844 843 842 841 840 839 839 839 838 837 836 834 833 834 833 832 830 829 829 829 828 827 826 825 824 824 825 825 826 827 829 830 830 831 832 833 834
808 810 812 814 815 817 818 819 820 822 823 825 826 828 829 830 832 832 833 834 836 836 837 838 839 840 840 840 841 843 844 844 844 845 846 846 846 845 845 845 845 846 846 846 846 846 845 844 842 840 839 839 838 836 835 836 835 834 833 831 828 829 828 826 824 824 823 823 822 821 819 818 817 818 818 819 820 822 824 824 824 825 826 827 828
804 806 808 810 812 813 815 816 817 819 820 822 823 824 826 827 828 829 830 832 833 834 835 835 836 837 837 838 839 839 840 841 842 843 843 843 843 842 841 842 843 843 843 843 843 843 843 841 840 838 836 835 835 833 832 833 831 829 829 828 826 824 823 821 819 818 817 816 815 813 812 812 812 813 814 814 814 816 817 818 818 819 819 821 822
800 803 805 807 809 810 811 813 814 816 817 818 818 820 822 823 825 826 827 829 830 831 832 833 834 834 835 835 836 836 838 838 839 840 840 840 840 839 838 839 840 841 841 841 841 840 840 838 837 835 834 832 831 830 829 828 827 825 825 826 823 820 819 817 814 813 813 812 811 808 806 807 808 808 808 807 807 808 810 811 811 812 813 814 815
797 800 802 804 806 807 808 809 811 812 813 813 814 816 818 820 822 823 824 826 827 828 830 830 831 831 832 833 833 834 835 835 836 836 837 837 837 836 836 836 838 838 839 839 838 838 837 836 833 832 831 828 826 826 825 824 824 823 822 822 819 817 818 815 809 808 808 808 807 804 801 803 804 803 802 800 800 802 803 804 805 807 808 810 811
794 796 799 800 802 803 805 806 807 808 808 809 810 812 814 816 818 820 821 823 824 826 827 827 828 829 829 830 830 831 832 832 832 833 833 834 834 833 833 833 834 836 836 836 835 835 835 833 830 829 828 824 821 822 822 821 821 820 819 819 817 816 816 814 808 804 803 805 804 799 796 798 800 799 796 795 795 798 800 800 801 802 803 804 805
790 792 794 796 797 799 801 802 803 804 804 805 807 809 811 813 815 817 818 820 821 822 823 824 825 826 827 827 827 828 828 828 829 829 830 830 830 830 829 829 830 831 832 832 831 831 831 830 826 825 824 821 817 817 819 818 816 816 816 815 815 814 813 812 808 802 800 801 801 797 792 792 795 794 790 787 789 795 799 798 795 794 794 795 796
786 788 789 791 793 795 797 798 799 800 800 802 803 805 807 809 811 813 815 817 818 819 820 821 822 823 823 824 824 824 824 825 826 826 826 826 826 826 826 826 826 826 827 827 827 827 827 826 823 819 819 818 813 812 815 815 813 813 812 811 811 810 809 809 806 800 797 798 798 796 790 786 788 788 783 781 784 790 794 791 785 783 783 784 786
782 783 785 787 788 790 792 793 795 796 796 798 800 801 803 805 807 810 811 813 814 815 817 818 818 819 820 820 821 820 821 822 822 823 823 823 823 823 822 822 821 821 822 822 822 822 822 821 819 814 813 813 810 808 811 812 811 809 808 807 807 806 808 808 802 795 793 794 795 795 787 780 784 783 777 777 779 780 782 780 776 776 777 777 778
777 778 780 782 783 785 787 789 791 791 792 794 796 797 799 801 804 806 808 809 810 811 813 814 815 815 816 817 817 817 817 818 818 819 819 819 820 819 819 818 816 816 817 817 817 817 816 816 813 809 808 808 807 806 806 808 807 805 805 804 803 804 807 805 795 789 789 790 791 792 783 777 780 778 771 772 774 770 770 769 768 770 771 772 773
773 774 776 778 779 780 782 785 786 786 787 790 792 793 795 798 800 802 803 805 806 807 808 810 810 811 812 813 813 813 813 814 814 815 815 816 816 816 815 814 813 813 813 813 813 812 811 810 808 806 804 803 803 802 802 803 802 801 802 801 799 803 805 799 789 785 785 785 784 785 780 774 775 773 767 767 768 764 761 760 760 760 762 766 771
769 770 772 773 775 776 778 780 781 781 783 785 787 789 791 794 796 798 799 800 801 802 804 805 806 807 807 809 809 810 810 810 810 811 811 812 812 812 812 811 810 809 809 809 809 808 807 806 805 804 802 800 799 798 798 799 798 798 799 795 793 798 800 794 787 781 780 779 777 778 776 769 767 767 764 762 761 757 754 754 753 753 756 764 772
764 766 767 769 771 772 774 775 776 777 779 781 783 784 787 789 792 793 794 795 797 798 799 800 801 802 803 804 806 806 806 805 805 806 807 808 808 808 808 807 807 806 806 806 805 804 803 803 801 800 798 797 795 794 793 794 793 794 795 791 788 791 793 789 783 777 774 772 771 771 769 763 760 762 760 757 754 750 748 747 748 750 754 760 765
760 762 764 766 767 768 770 771 773 774 775 776 778 780 782 785 787 789 790 791 792 794 795 796 797 798 799 800 801 802 802 801 801 802 803 804 804 804 805 805 804 803 802 802 802 800 800 799 797 795 794 793 792 790 789 788 788 789 790 787 786 786 785 782 779 775 770 765 764 766 763 756 755 756 755 753 748 741 740 741 741 745 748 750 753